FW9176 Weather Reports


Display with metric or nautical units.
time (UTC)temp
F
wind
direction
speed
MPH
gust
MPH
rain 1hr
in
rain 24hr
in
rain mn
in
humidity
%
barometer
mb
20260505223104 56 243 1.0 7.0 0.00 0.14 0.14 35 1006.7
20260505221551 56 0 1.0 6.0 0.00 0.14 0.14 35 1006.5
20260505220055 56 293 1.0 5.0 0.00 0.14 0.14 33 1006.8
20260505214555 56 269 0.0 5.0 0.00 0.14 0.14 34 1006.8
20260505213054 56 274 2.0 6.0 0.00 0.14 0.14 33 1006.9
20260505211605 56 346 0.0 5.0 0.00 0.14 0.14 37 1006.7
20260505210054 56 319 2.0 6.0 0.00 0.14 0.14 34 1006.7
20260505204547 55 0 0.0 4.0 0.00 0.14 0.14 36 1006.8
20260505203116 55 245 1.0 5.0 0.00 0.14 0.14 35 1007.1
20260505201552 55 288 0.0 8.0 0.00 0.14 0.14 35 1007.1
20260505200053 55 0 0.0 3.0 0.00 0.14 0.14 38 1007.2
20260505194554 56 0 1.0 7.0 0.00 0.14 0.14 36 1007.1
20260505193052 56 280 0.0 3.0 0.00 0.14 0.14 39 1007.2
20260505191557 56 0 0.0 5.0 0.00 0.14 0.14 38 1007.3
20260505190051 56 0 1.0 7.0 0.00 0.14 0.14 39 1007.3
20260505184600 57 285 1.0 6.0 0.00 0.14 0.14 38 1007.3
20260505183059 57 241 2.0 8.0 0.00 0.14 0.14 36 1007.2
20260505181556 57 289 0.0 3.0 0.00 0.14 0.14 36 1007.2
20260505174548 57 258 1.0 5.0 0.00 0.14 0.14 36 1007.0
20260505173056 56 294 1.0 4.0 0.00 0.14 0.14 39 1006.9
20260505171555 57 258 1.0 5.0 0.00 0.14 0.14 42 1006.9
20260505170052 57 295 0.0 4.0 0.00 0.14 0.14 42 1006.9
20260505164550 55 0 0.0 6.0 0.00 0.14 0.14 44 1006.8
20260505163052 55 318 1.0 4.0 0.00 0.14 0.14 46 1007.1
20260505161548 54 300 1.0 4.0 0.00 0.14 0.14 45 1006.8
20260505153053 52 0 1.0 5.0 0.00 0.14 0.14 56 1006.6
20260505151551 51 289 0.0 4.0 0.00 0.14 0.14 61 1006.8
20260505124559 45 0 1.0 3.0 0.08 0.08 0.08 78 1006.8
20260505123053 46 0 0.0 2.0 0.05 0.05 0.05 77 1006.6
20260505121557 47 0 0.0 3.0 0.03 0.03 0.03 74 1007.0
20260505120107 49 301 0.0 4.0 0.01 0.01 0.01 65 1006.8
20260505114556 51 0 0.0 3.0 0.00 0.00 0.00 55 1005.8
20260505113101 51 281 0.0 4.0 0.00 0.00 0.00 52 1005.5
20260505111556 51 305 0.0 3.0 0.00 0.00 0.00 53 1004.7
20260505101557 53 331 0.0 3.0 0.00 0.00 0.00 54 1003.8
20260505100055 53 0 0.0 3.0 0.00 0.00 0.00 52 1004.0
20260505094600 54 0 0.0 2.0 0.00 0.00 0.00 53 1004.2
20260505093057 54 39 0.0 4.0 0.00 0.00 0.00 52 1004.0
20260505091551 56 275 0.0 5.0 0.00 0.00 0.00 51 1003.7
20260505090059 57 0 0.0 3.0 0.00 0.00 0.00 47 1003.6
20260505084600 57 0 0.0 4.0 0.00 0.00 0.00 45 1003.0
20260505083103 58 329 0.0 2.0 0.00 0.00 0.00 45 1002.3
20260505081556 58 316 0.0 3.0 0.00 0.00 0.00 45 1002.1
20260505080051 58 0 0.0 1.0 0.00 0.00 0.00 46 1001.8
20260505074556 59 0 0.0 4.0 0.00 0.00 0.00 45 1001.3
20260505073058 59 0 0.0 1.0 0.00 0.00 0.00 45 1001.2
20260505071559 59 0 0.0 2.0 0.00 0.00 0.00 43 1001.0
20260505070104 60 300 0.0 4.0 0.00 0.00 0.00 42 1000.7
20260505064558 60 278 1.0 6.0 0.00 0.00 0.00 44 1000.7
20260505063053 60 266 0.0 3.0 0.00 0.00 0.00 45 1000.5
20260505061612 60 328 0.0 6.0 0.00 0.00 0.00 44 1000.4
20260505060100 61 290 0.0 3.0 0.00 0.00 0.00 47 1000.2
20260505054557 61 265 0.0 4.0 0.00 0.00 0.00 52 1000.4
20260505053050 60 0 0.0 2.0 0.00 0.00 0.00 61 1000.4
20260505051555 61 283 0.0 3.0 0.00 0.00 0.00 62 999.8
20260505041601 62 0 0.0 1.0 0.00 0.00 0.00 70 999.1
20260505040103 63 0 0.0 2.0 0.00 0.00 0.00 70 999.1
20260505034601 63 287 0.0 1.0 0.00 0.00 0.00 70 999.4
20260505033101 63 0 0.0 3.0 0.00 0.00 0.00 70 999.3
20260505031557 62 0 0.0 1.0 0.00 0.00 0.00 70 999.1
20260505030056 62 286 0.0 3.0 0.00 0.00 0.00 71 998.7
20260505024556 62 246 0.0 5.0 0.00 0.00 0.00 72 998.5
20260505023057 62 0 1.0 7.0 0.00 0.00 0.00 72 998.5
20260505021602 63 213 1.0 7.0 0.00 0.00 0.00 72 998.0
20260505020059 63 0 1.0 8.0 0.00 0.00 0.00 72 997.6
20260505014556 64 299 1.0 7.0 0.00 0.00 0.00 70 997.8
20260505013058 65 257 1.0 7.0 0.00 0.00 0.00 68 997.7
20260505011557 65 278 2.0 7.0 0.00 0.00 0.00 68 997.2
20260505010107 66 0 0.0 6.0 0.00 0.00 0.00 68 997.1
20260505004602 66 0 0.0 3.0 0.00 0.00 0.00 67 996.8
20260505003055 66 207 1.0 9.0 0.00 0.00 0.00 65 996.6
20260505001613 65 193 2.0 8.0 0.00 0.00 0.00 66 997.1
20260504234605 66 0 0.0 9.0 0.00 0.00 0.00 63 996.8
20260504233057 71 288 1.0 4.0 0.00 0.00 0.00 57 997.3
20260504231556 72 184 0.0 5.0 0.00 0.00 0.00 55 996.0
20260504230055 74 146 0.0 3.0 0.00 0.00 0.00 50 995.6
20260504224556 75 198 1.0 11.0 0.00 0.00 0.00 50 996.0